Location: Liscomb Game Sanctuary
(45.1633°N, 62.5575°W)
Time: 17:46:15
(UTC-03:00)

Cosmos 405 - Pass Details

Date: 22 February 2018
Orbit: 457 x 470 km, 81.3° (Epoch: 24 June)

Event Time Altitude Azimuth Distance (km) Brightness Sun altitude
Rises 18:51:09 0° 201° (SSW) 2,464 7.0 -11.9°
Reaches altitude 10° 18:53:16 10° 207° (SSW) 1,597 6.1 -12.2°
Maximum altitude 18:56:39 49° 283° (WNW) 606 4.0 -12.8°
Drops below altitude 10° 19:00:05 10° 360° (N) 1,617 5.7 -13.4°
Sets 19:02:14 0° 6° (N) 2,499 6.6 -13.8°
